Regional Weather Roundup
Issued by NWS

Home | Current Version | Previous Version | Text Only | Print | Product List | Glossary On
Versions: 1 2 3 4 5 6 7 8 9 10 11 12 13 14 15 16 17 18 19 20 21 22 23 24 25 26 27 28 29 30 31 32 33 34 35 36 37 38 39 40 41 42 43 44 45 46 47 48 49 50
000
ASUS43 KTOP 250208
RWRKS

WEATHER ROUNDUP FOR KANSAS
NATIONAL WEATHER SERVICE GOODLAND KS
900 PM CDT MON APR 24 2017

NOTE:  "FAIR" INDICATES FEW OR NO CLOUDS BELOW 12,000 FEET WITH NO
SIGNIFICANT WEATHER AND/OR OBSTRUCTIONS TO VISIBILITY.

KSZ001>006-013>018-027>032-041>047-250300-
NORTHWEST KANSAS

CITY           SKY/WX    TMP DP  RH WIND       PRES   REMARKS
GOODLAND       PTCLDY    56  43  61 NE6       29.52R
HAYS           CLOUDY    66  47  50 E12       29.47F
HILL CITY      CLOUDY    66  46  48 NE9       29.48F
RUSSELL        CLOUDY    68  48  48 SE13      29.48S
$$

KSZ061>065-074>080-084>089-250300-
SOUTHWEST KANSAS

CITY           SKY/WX    TMP DP  RH WIND       PRES   REMARKS
DODGE CITY     CLOUDY    67  49  52 SE15      29.48F
ELKHART          N/A     65  42  43 E10         N/A
GARDEN CITY    PTCLDY    68  44  42 E13       29.46F
GREAT BEND     CLOUDY    67  52  58 SE10      29.50S
PRATT          CLOUDY    64  50  59 SE13      29.52S
$$

KSZ066>073-081>083-090>101-250300-
SOUTHEAST KANSAS

CITY           SKY/WX    TMP DP  RH WIND       PRES   REMARKS
CHANUTE        CLEAR     61  48  62 SE8       29.63R
COFFEYVILLE    PTCLDY    61  49  64 SE7       29.62R
HUTCHINSON     CLOUDY    66  52  60 S12       29.53S
MEDICINE LODGE   N/A     67  51  56 SE10      29.52S
NEWTON         CLOUDY    63  51  65 S10       29.56S
PARSONS        CLOUDY    64  48  56 SE3       29.63R
WICHITA INTL   CLOUDY    64  52  64 S12       29.55S
WICHITA JABRA  PTCLDY    65  50  58 S12       29.56S
WICHITA MCCONL CLOUDY    65  49  55 S12       29.56S
WINFIELD       PTCLDY    65  49  56 SE7       29.58S
$$

KSZ007>012-019>026-033>040-048>060-102>105-250300-
NORTHEAST KANSAS

CITY           SKY/WX    TMP DP  RH WIND       PRES   REMARKS
CONCORDIA      CLOUDY    67  52  58 S13       29.50R
EMPORIA        CLEAR     65  47  52 S13       29.58S
LAWRENCE       CLOUDY    63  46  54 SE10      29.60R
MANHATTAN      CLEAR     69  49  48 S9        29.53R
MARYSVILLE     CLEAR     66  48  52 SE6       29.53R
OLATHE IND     PTCLDY    62  44  51 S8        29.62S
OLATHE EXE     MOCLDY    61  43  51 S7        29.63R
SALINA         CLOUDY    67  53  61 S8        29.52R
TOPEKA BILLARD CLEAR     66  47  50 S9        29.57S
TOPEKA FORBES  CLEAR     67  46  47 S12       29.57S
$$



USA.gov is the U.S. government's official web portal to all federal, state and local government web resources and services.